Location: *
(53.9002°N, 27.5624°E)
Time: 05:17:34
(UTC+00:00)

Cosmos 1725 Rocket - Pass Details

Date: 12 November 2019
Orbit: 962 x 990 km, 82.9° (Epoch: 10 December)

Event Time Altitude Azimuth Distance (km) Brightness Sun altitude
Rises 14:45:58 0° 349° (N) 3,716 6.9 -4.7°
Reaches altitude 10° 14:48:32 10° 353° (N) 2,765 6.2 -5.1°
Maximum altitude 14:54:52 66° 76° (ENE) 1,079 4.1 -5.9°
Drops below altitude 10° 15:01:08 10° 158° (SSE) 2,745 6.4 -6.8°
Sets 15:03:40 0° 161° (SSE) 3,687 7.1 -7.1°
